User: anonymous   Login
Location: Bothwell
(42.3833°S, 147.0000°E)
Time: 23:29:59
(UTC+11:00)
Language:

TIGRISAT - Orbit

View from above orbital plane
View from above orbital plane
View from above satellite
View from above satellite

Ground track
Ground track

The orbit data is extracted from the following two-line orbital elements,

1 40043U 14033AK  23030.24084243  .00001934  00000-0  28206-3 0  9995
2 40043  97.6555 212.3788 0059180 140.3751 220.1807 14.75688665463363
Epoch (UTC): 30 January 2023 05:46:48
Eccentricity: 0.0059180
inclination: 97.6555°
perigee height: 601 km
apogee height: 684 km
right ascension of ascending node: 212.3788°
argument of perigee: 140.3751°
revolutions per day: 14.75688665
mean anomaly at epoch: 220.1807°
orbit number at epoch: 46336

The dashed part of the orbit path shows where the satellite is in the earth's shadow,  

DLR